User: anonymous   Login
Location: Clatteringshaws Loch
(55.0508°N, 4.2860°W)
Time: 07:51:43
(UTC+00:00)
Language:

Sapphire - Orbit

View from above orbital plane
View from above orbital plane
View from above satellite
View from above satellite

Ground track
Ground track

The orbit data is extracted from the following two-line orbital elements,

1 26932U 01043D   16342.12161873 -.00000029  00000-0  20773-4 0  9990
2 26932  67.0560 228.8085 0004004 280.6975  79.3675 14.30233597792907
Epoch (UTC): 07 December 2016 02:55:07
Eccentricity: 0.0004004
inclination: 67.0560°
perigee height: 788 km
apogee height: 794 km
right ascension of ascending node: 228.8085°
argument of perigee: 280.6975°
revolutions per day: 14.30233597
mean anomaly at epoch: 79.3675°
orbit number at epoch: 79290

The dashed part of the orbit path shows where the satellite is in the earth's shadow,  

DLR